Theta_e
318 319 319 318 319 318 318 318 318 318 317 317 318 317 316 316 316 317 317 314 315 316 316 317 317 318 318 318 318 319 319 319 319 319 319 319 319 319 319 318 318 318 317 318 318 318 319 319 319 319 319 319 318 318 317 316 316 315 315 315 315 314 314 313 314 313 313 313 312 312 312 312 312 312 312 312 312 312 312 316 321 323 323 322 322 325
317 318 318 318 318 319 318 318 318 317 317 317 316 316 316 317 317 318 317 314 314 315 316 317 317 318 318 318 318 319 318 319 319 319 319 319 319 319 319 319 319 318 318 317 316 317 318 318 318 319 318 319 319 319 318 317 316 316 315 315 315 314 314 314 314 314 314 313 313 312 312 312 312 312 312 312 312 311 312 314 317 320 324 323 321 323
317 317 318 318 318 317 317 317 317 317 317 317 317 317 317 318 318 317 316 315 315 315 316 317 317 317 317 317 318 319 318 319 319 319 319 319 319 319 319 320 320 320 320 319 317 317 317 317 317 318 318 318 318 318 318 318 317 317 316 315 315 315 314 314 314 314 314 313 313 312 312 312 312 312 312 313 312 311 312 313 316 322 326 324 323 324
316 316 316 317 317 316 316 316 317 317 317 318 317 317 317 319 317 315 315 315 315 315 315 316 316 317 318 318 318 319 319 319 320 320 320 320 319 319 319 320 320 320 321 320 319 319 318 317 317 317 317 317 318 318 318 318 318 317 317 316 316 315 315 314 314 314 314 313 313 312 311 311 311 312 312 312 312 312 313 313 316 321 323 325 326 325
316 315 314 315 316 316 316 316 317 316 316 318 318 317 317 318 317 315 315 316 316 315 315 316 316 316 318 319 319 321 321 320 320 320 320 319 318 318 318 318 318 318 319 318 318 319 318 318 317 317 317 317 317 318 317 318 318 318 318 317 317 316 315 315 314 314 314 313 313 312 312 311 312 312 312 312 312 312 314 314 315 317 320 324 326 325
316 314 313 315 315 316 316 316 317 317 315 316 319 319 317 317 317 317 317 316 315 315 316 317 315 314 316 319 319 320 320 320 320 320 320 320 319 319 319 319 318 317 317 317 317 318 318 317 317 317 317 318 318 318 318 317 317 317 317 317 317 316 315 315 314 314 314 313 313 313 312 312 312 312 312 313 313 313 314 314 316 317 320 322 324 326
316 312 314 316 316 317 317 316 317 318 315 314 317 318 316 317 318 317 318 316 315 316 317 316 314 314 315 316 318 319 319 319 320 319 320 320 319 320 321 320 319 318 318 317 317 317 317 317 316 317 317 317 318 318 318 318 317 317 317 317 316 315 315 314 314 314 313 313 313 313 313 312 312 312 312 313 312 313 314 314 315 317 319 322 325 327
315 313 314 316 317 318 317 316 318 317 314 316 317 316 316 316 318 318 318 317 317 318 317 316 316 315 315 316 317 319 319 319 319 319 319 320 321 320 321 321 319 318 318 317 317 317 317 317 317 317 317 317 318 318 318 318 318 317 316 317 316 315 315 314 314 314 314 313 312 313 313 312 312 311 311 312 312 312 314 316 316 315 318 324 327 327
316 316 316 316 317 318 317 316 318 317 315 318 316 316 316 317 318 319 319 318 319 319 316 317 319 317 315 317 317 319 318 318 319 319 319 320 321 321 320 320 318 317 318 318 318 318 318 318 317 317 317 317 318 318 318 318 318 318 317 316 316 315 315 315 314 314 314 313 312 312 312 312 311 310 310 311 311 312 313 317 317 316 319 325 327 327
315 314 315 316 317 317 316 314 315 317 317 316 316 317 318 318 318 319 319 318 319 318 317 319 320 316 315 316 316 318 319 319 319 318 319 320 320 321 319 318 318 318 319 319 320 320 319 319 318 318 318 318 318 318 318 318 318 318 318 317 316 316 315 314 314 314 313 312 312 311 311 311 310 310 310 311 311 311 314 316 316 317 321 324 326 326
313 312 313 315 316 316 314 312 313 316 316 317 318 319 319 319 319 318 318 318 316 317 317 319 319 316 315 315 315 317 318 319 319 318 319 320 321 320 319 318 319 319 320 319 320 320 319 319 319 319 319 318 319 318 318 318 318 318 318 318 317 317 316 315 315 314 314 313 311 311 311 310 310 309 309 310 311 311 313 315 315 317 320 323 324 323
314 314 314 315 313 314 315 314 314 315 316 318 319 318 317 317 318 317 318 318 316 315 316 316 317 318 317 316 315 317 319 317 318 318 318 320 321 321 318 318 320 319 319 319 319 320 319 319 319 318 318 318 318 318 318 318 318 318 318 318 318 317 316 315 315 314 314 313 312 311 310 310 310 309 309 309 310 310 312 314 316 317 320 322 321 320
316 316 315 314 312 314 316 315 314 315 316 318 317 316 314 314 316 316 317 319 316 316 315 314 315 318 317 316 316 317 318 318 318 319 319 319 320 321 319 318 319 319 319 319 319 319 319 318 318 317 318 318 318 319 318 318 318 318 318 317 317 317 316 315 315 315 315 313 312 311 310 310 309 309 308 309 309 310 311 314 315 317 319 320 319 320
316 318 316 314 313 313 315 316 315 315 315 316 316 316 314 312 314 315 316 316 315 315 314 313 315 316 315 316 317 318 317 318 318 318 319 319 319 320 320 319 318 319 319 319 319 319 318 318 317 317 318 318 319 318 318 318 318 318 318 318 318 317 316 315 315 315 315 314 313 312 311 310 309 309 309 309 309 309 311 313 314 315 317 319 319 320
316 317 317 316 315 314 315 316 316 316 316 316 317 316 315 313 313 314 314 314 315 315 313 313 315 315 315 315 317 318 318 318 318 318 318 318 318 318 319 319 318 318 318 318 318 318 317 317 317 318 319 319 319 318 318 318 318 318 318 317 318 317 317 316 315 315 315 314 313 312 311 310 310 309 309 309 309 309 311 312 312 313 317 319 321 322
315 315 317 316 315 314 315 316 316 317 317 317 318 319 317 316 314 313 314 314 314 314 314 314 315 315 316 316 316 317 317 317 317 317 316 316 317 317 317 317 317 317 317 317 317 317 317 317 318 319 319 319 319 318 318 318 318 318 317 317 317 317 316 316 315 315 314 314 313 312 312 311 310 310 309 310 308 308 310 310 310 314 317 320 322 321
314 315 316 315 314 314 314 316 316 316 317 317 318 319 318 317 315 314 313 313 312 313 314 315 315 315 315 316 317 316 316 317 317 317 317 317 317 317 317 317 317 317 317 316 317 317 317 318 318 319 319 318 318 318 318 317 317 317 317 317 317 316 316 316 315 315 314 314 313 312 312 312 311 310 310 310 309 308 309 308 311 316 319 320 320 318
314 314 314 314 315 314 312 314 316 315 316 318 318 317 316 316 316 314 314 314 314 314 314 313 314 313 313 314 317 317 316 316 316 316 318 317 317 317 317 316 317 317 317 316 317 317 318 318 319 319 319 318 318 318 318 318 318 317 317 317 316 316 316 316 315 315 315 314 313 312 312 312 311 310 310 310 309 308 308 307 310 316 320 319 316 314
314 313 313 312 314 313 311 313 315 314 314 316 316 316 316 316 315 314 314 314 315 316 316 314 313 313 313 314 315 316 316 316 316 316 317 317 318 318 317 317 317 317 317 316 317 318 318 319 319 319 318 318 319 319 319 318 318 318 318 317 317 317 317 316 316 315 315 314 313 313 312 311 311 311 310 310 309 308 308 307 309 315 318 315 313 314
313 313 314 311 311 313 313 313 315 315 314 314 314 315 316 316 315 315 315 314 313 315 316 316 315 314 315 315 315 315 316 316 316 316 316 316 318 319 319 319 318 317 317 317 317 318 318 319 319 319 319 319 319 318 318 318 318 318 318 318 318 318 317 317 317 316 316 315 314 313 312 311 311 311 311 310 309 308 307 306 307 311 313 311 312 316
313 312 314 312 311 313 314 314 315 316 315 313 313 315 315 315 315 315 316 315 313 314 314 315 315 313 315 316 316 316 316 316 316 317 318 318 319 320 319 318 317 317 318 317 318 318 318 318 319 319 319 318 318 318 317 317 317 318 318 318 318 318 318 318 317 317 316 315 314 313 312 312 311 311 311 310 309 308 307 306 306 308 310 311 313 315
314 312 313 313 312 314 315 315 314 315 316 315 314 314 315 316 315 315 316 316 315 315 315 315 315 315 315 316 316 315 316 316 318 319 319 319 320 320 318 317 317 318 318 318 318 318 317 318 319 318 318 318 317 317 317 317 317 318 318 318 318 318 318 318 317 317 316 315 315 313 312 311 311 311 311 310 309 308 307 306 307 308 310 313 314 312
314 314 313 314 315 315 314 313 312 312 314 315 315 315 315 316 316 315 316 316 316 316 315 316 316 316 316 316 316 316 316 316 317 318 319 319 319 319 318 317 317 318 318 318 318 318 318 318 319 318 318 317 317 317 317 317 317 317 317 318 317 318 318 317 317 317 317 316 316 315 313 312 311 311 311 310 309 308 307 307 308 308 310 312 313 312
314 314 314 314 315 315 313 313 312 312 313 315 316 316 316 317 316 316 315 315 316 317 316 315 316 317 316 317 317 316 316 316 316 316 317 317 317 316 317 317 317 317 318 318 318 318 318 318 318 318 318 317 317 317 317 317 317 317 317 317 317 317 317 317 317 317 317 317 316 315 315 313 312 312 311 310 309 308 308 308 308 309 309 310 312 313
314 315 314 314 315 315 315 315 314 313 314 315 316 316 317 317 318 317 315 314 316 317 317 317 316 316 316 318 319 316 315 316 316 316 316 316 316 316 316 317 317 317 317 318 319 318 318 318 318 318 318 318 318 318 318 317 317 317 317 317 317 317 317 317 317 317 317 317 316 316 316 314 313 312 311 310 309 308 308 308 308 309 309 310 311 313
316 317 315 314 315 316 317 317 316 315 314 314 315 316 317 317 318 317 316 316 317 317 317 317 316 315 315 318 317 315 315 315 315 316 316 316 316 316 317 317 317 316 317 318 318 317 317 318 318 317 317 317 318 318 318 317 317 317 317 317 317 317 317 317 317 317 317 317 316 316 316 316 314 313 312 310 309 309 308 308 308 308 308 309 311 313
318 318 315 314 315 315 316 317 318 318 315 315 316 316 317 318 318 318 317 316 317 317 317 317 316 316 316 316 316 316 316 316 316 316 316 316 316 316 316 317 316 316 317 317 317 317 317 317 317 317 317 317 317 317 318 317 317 317 317 317 317 317 317 317 317 317 317 317 316 317 316 316 315 314 312 311 309 309 308 308 308 308 308 309 311 313
318 316 314 315 315 314 315 315 316 318 316 316 317 317 316 317 318 319 318 317 317 317 317 317 317 318 317 316 316 316 316 316 316 316 317 316 316 317 316 316 317 316 317 317 317 318 317 317 316 316 317 317 317 317 317 317 317 317 316 317 317 317 317 317 317 317 317 316 316 316 316 316 315 314 312 311 309 308 308 307 308 308 308 309 310 312
317 314 314 316 315 314 314 314 314 315 316 316 316 317 317 317 318 318 318 317 317 317 317 317 317 318 317 316 316 316 316 316 316 317 317 317 317 317 316 316 316 316 316 317 317 317 317 317 317 316 317 317 317 317 317 316 316 316 316 316 316 316 316 316 317 317 317 316 316 316 316 315 314 314 312 311 309 308 308 307 308 309 309 309 310 311
314 314 314 315 315 315 315 315 315 315 315 316 316 316 316 317 318 318 317 316 317 317 316 316 317 317 316 316 316 316 317 317 317 317 317 316 316 316 316 316 316 315 316 316 316 316 317 318 318 318 317 317 317 317 317 316 316 316 315 316 316 316 316 316 316 316 316 316 316 316 315 314 314 313 312 311 309 308 307 307 307 309 309 310 310 311
313 315 315 314 315 315 315 315 316 316 316 317 316 316 316 316 317 318 317 317 317 317 317 317 318 317 316 316 316 316 317 317 317 317 317 316 316 316 316 316 316 316 315 315 315 316 316 317 318 318 318 317 317 317 317 316 316 315 315 316 316 316 316 316 316 316 316 316 316 315 315 314 313 313 312 310 309 307 307 307 307 308 309 310 310 311
312 314 314 314 315 316 315 315 315 315 316 317 316 316 316 316 316 316 317 317 317 317 317 318 318 317 316 316 317 316 317 317 317 317 317 317 316 316 316 315 316 316 316 315 315 315 315 316 316 316 316 316 317 317 317 316 316 315 315 316 316 316 315 315 315 315 316 316 315 315 314 313 313 312 311 310 309 307 306 306 307 307 308 310 310 310
312 312 313 314 315 316 316 315 316 316 317 317 317 316 315 316 316 315 316 316 317 317 317 317 317 316 316 316 316 316 316 317 317 317 317 317 316 316 316 316 316 316 316 316 315 315 315 315 315 315 315 316 317 317 317 316 316 315 316 316 316 315 315 315 315 315 315 315 315 314 314 313 313 312 311 310 308 307 306 306 306 307 307 309 310 309
312 313 313 314 315 316 316 316 316 316 318 319 318 316 315 315 316 316 316 316 316 316 316 316 315 315 316 316 315 316 316 316 317 316 316 317 317 316 316 316 316 315 315 315 315 315 315 315 315 315 316 316 317 317 317 316 315 315 316 316 316 316 315 315 314 314 314 314 314 314 314 313 313 312 311 309 308 306 306 305 305 306 307 308 308 308
313 313 313 314 315 315 315 316 316 318 319 318 316 315 315 315 315 316 317 315 315 316 316 316 315 315 315 315 316 316 316 316 316 316 316 316 316 316 316 315 315 315 315 315 315 315 315 315 315 316 316 316 317 317 316 316 316 315 315 316 316 316 315 314 314 313 313 314 314 313 313 313 312 311 310 309 308 306 306 305 305 305 306 307 307 307
313 313 312 313 314 314 315 316 317 319 318 316 315 314 315 315 316 317 317 316 315 316 316 316 315 315 315 316 316 316 316 315 315 315 315 315 315 315 315 315 315 315 315 315 315 315 315 315 315 316 316 316 316 316 316 315 315 315 315 315 315 315 315 314 314 314 313 313 313 313 312 312 311 310 309 308 307 306 305 304 304 304 305 305 306 306
313 313 313 313 314 314 315 315 316 317 317 316 315 315 315 316 316 316 317 317 316 316 316 316 316 316 316 316 316 316 315 315 315 315 315 315 315 315 315 315 315 315 315 315 315 315 315 315 315 315 316 316 315 315 315 315 315 315 315 315 314 314 314 314 314 313 313 312 312 312 311 311 310 309 308 307 306 305 304 303 303 303 304 304 305 305
313 312 313 313 314 314 314 314 315 316 316 315 315 315 315 316 316 316 317 317 316 316 316 316 316 316 316 316 316 315 315 315 315 315 315 315 315 315 315 315 315 315 315 315 315 315 314 315 315 315 315 315 314 314 315 315 315 314 314 314 314 314 314 313 313 312 312 311 311 310 310 309 308 306 306 305 304 303 303 302 302 302 302 303 304 304
313 312 312 313 313 314 314 314 314 315 315 314 314 315 314 315 315 316 318 317 316 315 316 315 316 316 316 316 316 316 316 315 315 315 315 315 316 315 315 315 315 315 315 315 315 315 314 314 314 314 314 314 313 314 314 314 314 314 314 314 314 313 313 313 312 311 311 310 310 309 308 307 306 305 304 303 303 302 302 301 301 301 301 302 303 303
313 312 312 313 313 313 314 314 314 314 314 315 315 314 313 314 315 318 318 318 316 315 315 315 315 315 315 315 315 316 316 315 315 315 315 315 315 315 315 315 315 315 315 314 314 314 314 314 314 313 313 313 313 313 313 314 314 313 313 313 313 313 312 312 311 311 310 309 309 308 307 306 305 304 303 303 302 301 301 300 300 300 300 301 301 302
313 312 312 313 313 313 313 314 313 313 314 315 315 313 313 314 316 317 316 314 312 312 312 312 313 314 314 315 315 315 315 315 315 315 315 315 315 315 315 315 314 315 314 314 314 314 314 314 314 313 313 312 312 313 313 313 313 313 313 313 312 312 311 310 310 309 308 308 307 306 305 305 304 303 302 302 301 300 300 299 299 299 300 300 300 300
312 312 312 313 313 313 313 313 313 313 314 314 313 311 312 314 316 314 311 309 308 308 309 309 309 310 312 313 314 314 314 314 315 315 315 315 315 315 315 314 314 315 314 313 313 313 314 314 314 313 313 312 312 313 312 313 312 312 312 311 311 310 309 309 308 308 307 307 306 305 304 303 302 302 301 300 300 299 299 298 298 298 299 299 299 299
311 312 312 313 313 313 313 313 313 314 313 310 310 311 312 313 312 309 307 306 307 307 308 309 308 308 309 310 311 311 312 312 313 314 314 315 315 314 314 314 315 315 314 313 312 312 313 314 314 313 313 312 312 312 312 312 312 311 311 310 309 308 308 307 307 306 306 305 304 303 303 302 301 300 300 299 298 298 298 298 298 298 298 298 298 297
309 310 310 311 313 313 313 314 313 312 309 307 308 310 310 310 308 306 305 306 306 306 308 309 309 309 308 308 308 309 310 310 311 312 312 313 313 313 313 313 313 313 312 312 312 312 313 313 313 313 312 312 312 312 312 311 310 309 309 308 307 307 306 306 305 305 304 304 303 302 301 300 300 299 298 298 297 297 297 297 297 297 297 297 297 296
309 308 307 309 311 311 311 311 309 307 306 305 306 307 307 307 306 305 305 305 305 306 308 308 309 309 308 307 307 308 309 310 311 311 311 311 311 312 312 312 312 310 310 311 311 312 312 313 313 312 312 312 311 311 310 310 309 308 307 307 306 306 305 304 304 303 303 302 301 301 300 300 299 298 298 297 297 297 297 297 297 297 297 297 296 296
308 307 306 307 308 308 307 307 306 306 305 305 306 306 306 306 305 305 305 305 306 306 307 307 308 309 308 307 306 307 308 309 310 310 311 311 312 312 312 312 312 310 309 310 311 312 312 311 311 311 311 311 310 310 309 309 308 307 306 306 305 305 304 304 303 302 302 301 301 300 300 299 299 298 298 297 298 297 297 297 297 297 297 296 295 294
307 305 304 306 306 306 307 307 307 306 306 305 306 306 305 305 305 305 305 306 306 306 306 306 308 309 309 307 306 306 307 308 308 309 311 311 311 312 312 311 311 310 309 309 310 311 310 310 310 310 310 309 309 308 308 307 306 306 305 304 304 304 304 303 303 302 302 301 301 300 300 300 299 299 298 298 297 297 296 296 296 295 294 294 293 292
305 304 303 303 304 305 306 305 305 305 305 306 306 305 305 305 305 305 306 306 306 305 305 305 307 309 309 309 307 305 305 306 307 307 309 309 310 311 311 310 310 309 309 309 309 309 309 308 308 308 308 307 306 306 306 305 305 305 304 303 303 304 303 303 303 303 302 302 301 301 300 300 299 299 298 296 295 295 294 293 293 292 293 293 293 294
303 302 302 302 303 304 303 303 303 303 304 305 305 305 305 305 305 305 305 305 305 305 305 305 307 308 309 309 308 305 304 306 306 306 307 308 308 309 309 309 309 308 308 307 308 308 307 307 306 305 305 305 304 304 304 304 304 304 303 303 304 304 304 304 303 302 302 302 301 301 300 299 298 297 296 295 294 294 293 293 293 293 294 295 295 296
302 301 301 302 301 301 301 302 302 302 303 304 305 305 305 305 305 305 305 305 305 305 305 306 307 308 309 309 309 306 305 306 307 307 308 309 309 308 308 307 307 307 307 306 307 306 306 305 304 304 304 303 303 303 303 304 305 305 304 304 304 304 304 304 304 303 302 302 301 300 299 298 297 296 296 295 295 295 295 295 295 295 295 296 296 296
301 301 300 300 300 300 301 301 301 301 302 304 304 304 303 304 304 305 305 305 305 305 305 306 307 307 308 309 309 307 306 306 307 308 308 309 309 309 308 307 306 306 305 305 305 305 304 303 303 303 302 302 302 304 305 305 306 306 305 305 305 305 304 304 304 304 303 302 301 300 300 299 298 297 297 297 297 297 296 296 296 296 295 295 295 295
Wind_Speed
3 4 5 6 7 8 9 8 3 2 3 1 1 2 4 4 3 2 5 4 1 4 8 10 12 15 16 15 17 20 19 18 19 19 19 19 20 21 23 25 27 29 32 31 30 31 31 30 31 31 29 27 25 25 25 27 29 30 32 33 32 31 31 31 30 31 32 32 32 33 33 33 32 30 31 33 32 34 34 33 34 35 33 31 30 33
3 6 7 7 3 1 3 3 1 1 1 2 3 3 4 5 4 2 5 3 2 2 7 9 12 14 15 16 18 20 19 19 20 20 21 22 22 22 23 25 27 28 29 30 33 33 34 35 34 34 32 30 29 28 28 27 28 30 32 33 33 33 33 33 32 32 32 32 32 32 32 33 32 31 33 32 32 33 34 34 35 35 35 33 33 34
4 7 6 3 4 5 3 1 2 4 4 4 3 4 4 3 2 2 4 2 2 3 5 6 10 14 15 16 18 20 20 20 21 22 22 21 22 23 23 23 22 21 21 26 31 32 34 35 34 35 33 32 31 30 30 30 29 30 32 33 34 35 35 35 35 34 32 32 32 32 32 33 32 33 33 32 32 33 33 33 34 35 35 35 34 34
5 5 2 3 4 3 2 3 4 4 5 5 4 4 3 1 1 2 2 2 3 4 5 7 9 13 14 14 17 20 22 21 18 18 20 19 22 25 25 22 20 19 20 23 25 24 28 31 30 31 30 29 30 31 32 32 31 32 32 33 34 34 35 35 36 35 33 32 32 33 33 34 35 34 33 31 32 32 30 30 33 36 36 36 36 35
4 3 2 2 4 5 5 5 6 5 4 6 6 6 5 2 2 2 2 1 5 4 3 6 8 9 10 10 10 10 12 13 13 14 15 18 23 26 25 24 23 24 24 26 25 21 24 27 26 24 22 22 24 27 30 32 33 33 33 33 34 34 35 36 37 36 34 34 34 35 36 37 37 36 33 32 33 32 29 30 33 36 37 38 37 35
3 4 2 4 4 6 6 6 7 6 5 5 7 7 9 7 3 2 3 3 5 3 1 3 5 6 7 9 9 6 6 9 11 12 14 18 21 21 21 23 25 25 25 26 26 23 23 26 27 25 22 20 20 21 24 27 31 33 33 34 34 35 36 37 37 37 36 36 36 36 37 38 39 37 36 36 35 33 32 31 32 34 35 37 37 36
2 3 1 4 5 5 6 6 7 7 5 4 2 2 6 7 4 3 3 2 4 2 1 1 4 6 8 12 12 7 7 9 9 11 15 18 18 16 16 18 20 20 20 21 22 22 22 24 25 25 23 22 20 19 19 22 26 30 33 34 34 35 37 38 38 39 38 38 38 38 38 38 37 37 37 36 35 34 32 31 31 33 35 36 37 37
4 5 3 4 5 5 5 5 6 10 7 2 1 1 0 2 3 3 3 4 3 4 2 3 3 5 8 13 11 3 5 11 10 11 14 17 16 14 13 13 14 15 15 15 16 16 16 18 19 20 19 19 19 20 21 21 23 25 29 32 33 34 36 38 39 39 40 39 39 38 38 37 36 36 36 36 35 34 33 31 30 33 34 36 38 38
3 5 6 7 7 5 4 2 1 9 6 1 1 1 3 3 2 2 2 3 1 3 5 5 5 5 6 11 12 6 7 12 11 11 12 12 11 9 8 9 10 11 10 8 7 8 10 12 13 14 14 15 16 19 20 21 22 23 26 28 30 32 34 36 38 39 40 39 39 39 39 37 36 36 35 36 37 35 34 33 31 32 35 38 39 38
3 1 3 6 6 4 3 6 5 2 2 3 4 4 6 4 3 2 2 3 1 4 7 6 9 6 6 8 10 8 7 9 9 8 5 3 3 4 6 7 8 8 7 5 4 4 5 6 6 7 7 8 10 12 14 16 19 21 24 27 29 31 33 35 36 38 39 38 38 39 39 36 35 35 35 37 38 36 35 34 32 33 37 39 40 40
3 2 1 3 2 1 6 7 6 5 4 7 6 5 4 3 2 1 2 1 3 6 4 5 10 7 7 5 8 7 4 3 4 3 3 5 5 6 6 7 7 7 8 7 6 5 5 4 4 3 4 6 8 10 12 14 16 19 22 25 28 30 32 33 35 36 36 36 37 37 37 35 34 35 36 38 39 37 35 35 34 34 36 39 40 40
4 3 2 2 1 4 6 6 5 4 3 4 3 3 2 2 2 3 3 3 5 6 0 1 2 6 8 5 5 4 2 1 3 3 3 4 6 7 6 7 8 11 10 9 8 7 7 6 4 6 9 12 13 14 14 16 17 19 20 22 25 27 30 32 33 34 35 34 35 35 35 35 34 34 37 39 39 38 36 36 35 35 37 39 40 39
4 5 5 5 2 5 6 5 4 2 2 3 4 5 3 4 4 4 5 4 6 3 2 0 2 5 10 7 6 6 5 6 7 5 4 3 3 4 5 6 10 13 12 11 11 10 9 8 9 12 14 15 16 16 16 18 19 20 20 21 22 24 26 29 31 32 33 33 33 33 34 34 34 35 38 39 38 38 37 36 36 36 38 39 39 39
4 3 6 6 2 7 9 5 5 4 5 7 7 7 6 5 5 7 6 4 4 1 1 1 1 5 10 6 10 14 12 13 13 11 10 11 12 10 7 9 12 14 14 13 13 11 12 13 15 15 15 15 16 16 17 18 19 19 19 20 21 22 23 26 28 30 30 30 31 32 33 33 34 35 38 38 37 37 36 36 36 35 36 37 37 37
6 4 8 9 6 12 13 9 7 6 8 10 7 7 7 6 6 7 5 4 4 0 2 2 2 6 5 1 3 5 5 9 12 13 15 16 16 13 12 15 17 19 20 18 17 17 18 19 16 14 14 15 15 15 16 16 17 17 17 18 18 19 21 23 25 27 28 28 29 31 32 33 35 35 37 37 36 37 36 36 35 34 35 36 36 36
9 6 8 7 7 17 15 11 10 6 6 7 4 6 7 5 6 5 1 1 2 2 2 5 4 6 5 4 5 4 3 6 9 11 14 16 14 12 13 18 21 25 27 24 23 24 24 19 14 13 13 13 13 13 13 13 14 14 14 14 15 16 17 19 22 23 25 27 28 29 31 33 34 35 36 36 36 37 38 37 35 34 34 35 38 37
7 3 6 5 5 12 8 5 8 4 3 5 5 7 3 1 3 5 1 3 1 5 6 5 7 9 7 9 11 13 13 12 12 11 11 15 18 16 17 19 20 22 21 20 21 19 17 15 13 13 12 11 10 9 9 8 8 9 10 11 12 13 14 17 19 21 23 25 26 28 29 30 32 34 36 36 35 36 37 36 34 34 35 37 38 37
6 3 2 3 4 5 2 2 1 2 1 3 5 5 2 3 2 4 4 2 3 8 6 6 11 11 7 7 4 8 11 10 9 8 8 11 15 18 23 28 28 25 22 22 19 13 13 13 12 12 11 9 7 6 5 4 4 5 6 7 8 9 11 14 17 19 21 22 24 25 27 28 30 32 35 35 33 34 35 35 34 36 38 39 38 36
4 4 2 0 1 3 3 0 3 0 1 1 2 1 1 2 4 5 6 6 7 8 6 9 14 11 9 10 4 3 5 5 5 5 6 8 11 15 20 25 28 28 25 22 17 13 13 13 13 13 11 10 8 6 4 3 3 4 5 5 7 8 10 12 15 17 19 21 22 24 25 27 28 30 32 32 32 33 33 34 35 37 40 39 36 35
4 6 3 1 2 4 5 4 7 5 3 1 3 2 1 2 4 5 6 6 7 8 7 9 11 9 9 11 11 9 9 8 8 7 7 9 9 8 9 13 19 20 17 16 16 17 15 14 16 15 13 11 9 6 5 4 5 5 6 6 7 9 10 13 15 17 18 20 21 22 24 26 27 29 31 29 30 32 32 33 35 37 38 36 34 34
4 5 4 1 1 3 5 7 10 9 8 5 5 6 5 3 1 2 4 6 6 7 7 8 9 9 7 6 8 9 7 6 6 4 4 7 8 4 4 8 12 13 13 14 19 22 19 17 19 18 15 12 10 8 6 7 7 7 8 8 9 10 12 14 15 17 19 20 21 22 23 25 27 28 28 26 28 30 31 32 34 35 35 33 33 34
5 5 5 4 4 7 7 6 7 7 9 9 9 10 10 9 5 4 7 6 4 5 5 6 7 10 8 2 2 5 3 3 3 3 4 7 7 7 8 9 9 12 14 14 17 23 24 23 22 20 17 14 12 9 8 9 10 10 10 10 11 12 13 15 16 18 19 20 21 22 23 24 26 26 25 24 27 29 31 32 33 33 33 33 33 32
3 4 6 6 6 6 3 2 1 1 3 5 7 9 10 9 9 9 8 4 4 4 3 5 7 11 10 1 2 4 2 2 2 1 4 7 7 10 13 13 11 12 14 14 15 21 25 26 24 21 18 15 12 10 10 11 10 11 11 11 12 12 13 15 17 18 20 21 21 22 23 24 25 25 24 24 27 29 31 32 32 32 33 34 33 32
1 2 6 7 5 3 3 3 2 2 2 5 7 7 7 8 8 7 4 0 2 6 5 6 7 11 13 7 5 7 3 2 4 5 7 9 11 16 20 18 14 11 12 14 17 22 26 26 25 22 19 17 14 12 11 10 10 11 12 11 12 13 14 15 17 19 20 21 21 22 23 24 25 25 25 25 27 29 31 32 31 31 32 33 34 34
4 2 4 5 5 5 5 4 3 3 3 5 7 7 8 9 6 0 1 1 4 7 9 9 8 10 14 9 4 4 5 7 9 11 12 15 16 19 22 19 14 12 14 16 20 24 26 27 25 24 22 20 17 14 12 11 11 12 12 11 12 12 14 16 18 20 21 22 22 22 23 24 25 26 26 25 27 29 31 32 31 31 31 32 34 35
4 2 4 6 7 8 8 5 4 5 5 4 6 10 13 14 11 5 3 5 7 10 11 10 9 10 16 16 8 4 6 9 12 14 15 17 20 22 22 20 17 18 19 19 22 22 24 28 28 27 25 23 20 17 14 14 15 14 13 12 11 13 15 17 20 22 23 22 22 23 25 25 26 26 26 25 27 29 31 32 32 32 31 32 33 33
2 1 4 8 9 11 10 6 2 7 8 8 10 13 14 14 14 10 6 8 9 10 11 12 12 14 20 23 18 12 11 10 10 12 15 18 22 23 23 21 20 24 25 22 23 23 23 27 30 30 27 25 23 20 18 18 17 15 14 12 13 15 17 19 22 24 24 24 25 26 26 27 26 26 26 26 26 27 29 31 33 33 32 32 33 32
2 3 7 9 12 15 15 14 7 3 7 11 13 14 14 13 13 11 10 13 11 9 11 13 15 17 19 21 22 22 20 13 9 12 16 19 19 20 22 23 22 25 27 24 24 27 28 30 31 31 29 28 26 24 22 22 19 17 15 14 15 17 19 21 24 25 25 26 27 27 28 28 27 26 26 26 26 26 27 30 32 33 32 31 33 33
2 5 8 9 13 16 17 18 16 11 11 11 11 13 14 14 15 14 15 17 16 12 13 15 17 19 18 19 24 26 23 19 19 20 19 18 16 16 19 23 25 28 29 28 26 28 31 34 35 33 31 31 30 28 28 27 24 21 18 16 18 20 21 22 25 26 28 29 29 29 30 29 28 28 27 26 26 25 26 29 31 32 32 32 32 32
2 4 7 8 10 15 18 19 17 15 14 13 14 15 14 13 16 17 17 20 21 19 17 18 21 22 18 19 24 28 30 27 22 17 12 13 16 19 22 26 29 31 33 31 30 33 35 36 38 39 37 35 34 34 34 33 29 25 22 19 20 22 23 24 26 28 31 32 31 31 31 30 30 29 27 26 26 25 26 28 30 31 32 32 32 32
4 4 5 5 6 12 17 18 18 17 14 13 14 15 16 16 16 17 17 17 17 18 19 21 22 20 19 20 23 31 38 31 18 14 12 13 17 21 25 28 29 30 32 33 34 37 39 37 38 40 41 42 43 43 42 38 34 30 26 24 24 25 25 27 28 29 31 33 33 33 32 31 31 30 27 26 25 25 26 28 29 30 31 32 32 32
5 3 1 3 6 9 12 14 17 16 12 11 14 17 19 19 17 15 14 13 14 17 18 19 17 15 17 19 20 27 33 27 20 24 25 20 20 22 23 27 29 29 32 36 38 39 41 41 41 43 47 51 51 49 47 42 36 32 30 30 29 28 28 29 30 30 32 34 34 34 33 32 31 30 28 27 26 25 26 28 28 29 32 33 32 32
6 4 3 5 5 7 11 13 11 10 9 8 12 18 21 20 18 16 14 16 19 18 15 13 13 13 16 17 18 22 25 21 21 27 28 27 30 28 24 26 30 32 35 39 40 41 42 43 44 46 50 53 50 46 44 39 35 34 34 35 34 32 32 33 32 31 32 35 36 35 34 33 32 31 29 27 26 24 25 27 28 30 32 32 31 31
7 7 6 6 5 7 11 9 6 8 9 8 11 16 18 18 19 18 18 21 22 17 14 14 14 16 18 19 20 22 21 20 24 31 34 34 34 30 26 28 33 36 39 41 43 45 46 46 45 45 47 48 45 40 39 39 40 40 37 37 37 37 36 36 35 33 32 34 36 35 34 34 33 31 30 27 26 24 25 26 28 29 31 30 30 30
6 7 7 6 5 6 7 6 8 10 8 8 11 13 14 17 19 20 22 25 23 18 16 18 19 21 23 26 29 30 27 27 30 35 40 40 35 30 31 36 41 42 43 44 45 46 46 45 45 43 43 44 44 43 43 44 45 42 38 37 37 38 39 39 38 35 33 34 35 35 34 34 32 31 30 28 27 25 25 25 26 28 29 29 29 29
7 6 6 7 6 5 5 9 11 6 2 6 10 9 11 14 16 17 18 20 22 19 17 18 22 24 26 32 36 34 32 34 34 39 49 49 41 37 40 45 49 49 47 48 47 47 46 45 44 43 42 44 46 46 46 46 44 41 37 36 37 38 40 40 38 35 33 33 34 34 33 32 31 30 30 28 27 25 25 24 25 26 27 28 28 27
11 7 6 7 7 6 8 11 10 8 9 10 10 10 11 11 11 11 11 14 17 17 17 18 21 24 25 30 34 31 29 27 23 33 51 51 41 42 47 49 51 50 49 51 50 47 45 44 42 42 42 43 44 44 44 44 41 37 36 36 38 39 39 38 35 32 30 30 31 32 31 30 29 29 28 27 26 24 23 22 22 23 25 26 26 26
14 11 8 7 7 7 9 11 10 10 11 12 14 18 17 14 12 10 10 11 11 13 18 19 20 25 24 22 24 23 20 14 8 22 47 50 39 39 42 41 45 47 46 47 47 45 44 44 44 45 45 44 43 42 41 40 37 36 37 38 38 37 35 32 31 28 27 27 27 28 28 27 26 26 26 24 23 21 19 19 19 20 21 23 24 25
17 13 11 9 8 8 9 10 10 10 8 9 13 15 16 17 14 9 10 10 8 17 25 20 18 23 20 17 19 15 10 8 7 19 43 49 38 33 34 35 39 41 40 40 38 38 40 42 44 46 45 42 40 37 37 37 36 37 37 36 34 32 30 29 28 26 24 24 24 25 25 25 23 23 22 20 19 17 16 16 17 17 18 20 22 23
14 11 11 10 10 12 12 11 9 8 6 7 12 12 8 6 7 8 10 7 5 17 26 19 17 21 18 19 20 11 7 11 14 25 44 48 38 33 34 36 37 36 36 36 33 32 34 36 39 41 40 38 36 35 35 35 35 34 32 30 29 28 28 27 26 24 23 23 23 23 23 22 21 20 20 18 17 16 16 15 15 15 17 18 19 20
8 9 10 11 11 14 16 13 8 7 6 7 14 15 4 3 5 9 8 5 7 14 20 16 15 17 18 24 23 12 15 26 31 38 47 47 41 39 38 37 38 38 38 36 32 30 30 31 34 36 35 33 32 32 31 30 29 28 27 26 27 26 26 25 24 22 22 21 21 21 20 20 19 19 18 17 17 16 15 15 14 14 16 17 17 17
5 5 7 10 11 12 13 11 9 8 3 1 9 10 2 5 7 6 6 16 20 22 28 26 19 17 17 22 24 21 26 34 39 42 45 45 45 45 42 41 41 40 40 38 34 32 30 30 32 32 29 27 25 25 24 24 24 24 25 25 25 25 24 23 22 21 20 19 19 18 18 18 17 17 17 17 16 16 15 14 14 14 15 15 15 14
3 4 5 6 7 8 9 10 9 7 0 6 8 6 3 4 6 9 13 22 27 27 31 32 27 21 19 22 27 30 30 31 33 37 40 42 43 42 41 42 40 40 41 38 34 32 30 28 28 27 24 23 22 22 22 22 23 23 23 23 22 22 21 20 19 18 18 17 17 17 16 16 15 15 15 15 15 15 15 15 15 15 14 13 13 12
5 6 7 5 4 6 8 6 3 2 0 4 3 2 5 9 16 18 16 20 26 29 28 31 34 31 24 22 29 33 34 34 35 35 36 38 39 39 39 40 38 37 37 36 33 31 27 26 26 25 23 22 22 22 22 22 21 20 20 20 19 19 18 17 17 16 16 16 16 15 15 15 15 15 15 15 15 16 16 16 16 16 15 15 15 14
6 6 6 5 3 4 5 5 3 4 10 13 9 8 13 18 23 24 21 19 25 29 27 29 35 36 30 27 28 30 33 35 36 37 38 39 40 40 41 41 40 37 34 32 31 28 25 25 25 24 23 23 22 22 21 20 19 18 17 17 16 16 15 15 15 14 14 14 15 15 15 15 16 16 16 17 16 16 17 17 17 17 18 18 17 17
5 3 3 2 2 4 7 11 11 12 17 21 17 14 16 20 25 27 23 19 21 26 29 31 35 37 35 31 28 29 33 34 34 36 39 41 43 43 42 42 41 36 31 29 28 26 26 27 25 24 24 23 22 21 20 19 18 16 15 14 14 14 14 13 13 13 14 14 14 15 15 16 17 18 18 19 18 18 18 18 19 19 19 20 19 19
2 4 2 2 4 5 6 5 4 8 14 17 19 21 22 23 25 24 21 19 22 27 31 33 35 37 38 34 29 30 32 32 32 34 36 39 42 44 42 40 38 34 29 27 27 27 27 26 25 25 25 23 21 20 19 18 17 16 14 13 14 14 13 13 13 13 14 14 14 15 16 17 19 20 20 20 20 20 19 19 18 18 19 19 19 18
2 5 4 4 5 5 6 8 13 18 19 18 20 23 24 24 24 24 24 25 28 32 34 34 34 36 36 34 31 30 30 29 29 29 30 31 34 36 38 37 35 33 30 28 28 28 27 24 23 23 23 22 20 19 18 18 17 16 15 14 14 14 13 13 13 13 13 14 15 16 18 19 20 21 22 22 21 20 20 18 17 17 17 17 17 17
8 7 4 5 7 7 8 11 17 19 16 14 16 19 22 25 27 28 30 31 33 35 36 35 35 35 34 32 30 27 25 22 19 20 21 21 21 24 27 28 29 30 29 28 26 26 25 24 22 21 21 21 20 19 19 19 18 17 15 15 14 13 13 13 13 13 14 15 16 18 19 21 21 22 23 22 22 21 20 19 18 17 16 16 16 16
9 6 5 6 8 7 6 8 11 11 9 10 17 22 26 29 29 29 32 34 35 37 38 36 36 35 34 32 28 25 22 19 17 19 19 18 17 18 18 20 22 24 25 24 24 23 23 22 21 20 19 19 19 19 18 17 16 15 15 14 13 12 12 12 13 14 15 16 17 19 20 22 22 22 22 22 22 22 22 21 19 18 16 16 15 14
12 9 8 8 8 9 12 16 18 16 12 15 23 28 30 30 30 30 33 36 38 40 40 38 37 37 37 34 30 26 25 24 23 22 21 20 19 16 15 15 16 18 20 20 20 20 20 20 19 18 18 18 18 17 17 15 14 14 14 13 12 12 12 12 13 14 16 18 19 20 21 22 22 22 22 22 22 22 23 23 22 20 18 16 15 15
Wind_Direction
201 207 207 219 220 217 210 212 231 33 39 5 352 260 247 251 243 151 98 89 77 270 258 252 259 265 268 271 271 271 267 259 257 256 255 255 254 254 256 258 258 260 263 261 258 257 256 255 256 259 262 260 254 251 248 242 240 240 240 241 242 241 240 240 241 242 241 240 240 240 242 243 242 242 241 240 238 235 233 227 220 224 229 229 228 228
190 227 223 221 226 218 196 185 137 29 305 277 272 268 247 247 250 107 94 118 126 269 267 271 274 269 268 271 271 269 266 259 254 251 250 250 251 252 253 254 256 260 261 262 262 260 258 258 258 259 259 257 254 251 250 247 244 241 240 241 242 242 242 242 244 246 246 244 243 243 244 246 245 243 243 243 239 236 234 230 223 223 225 225 226 227
206 229 221 171 90 64 64 113 223 245 259 255 248 259 257 245 238 122 99 117 156 248 276 300 293 279 272 268 265 261 256 254 251 248 250 252 253 252 251 251 253 254 252 258 264 263 262 261 259 260 258 256 254 252 250 249 246 244 242 242 242 243 243 243 246 248 249 248 246 246 246 246 246 243 244 245 241 238 235 229 224 222 223 225 226 226
214 220 193 110 119 145 144 176 210 227 239 238 238 252 248 150 253 230 102 112 196 240 290 308 297 283 275 264 256 250 249 254 254 250 251 250 251 252 252 252 251 250 248 254 260 261 263 265 263 262 261 257 254 251 249 247 246 245 244 244 244 244 245 244 246 249 250 249 248 246 245 245 245 244 245 244 240 239 235 226 223 222 223 223 225 227
217 75 63 137 177 203 189 177 199 217 230 227 226 240 248 263 291 281 25 325 240 227 273 293 284 277 275 265 256 239 232 247 249 245 246 245 251 256 255 255 255 256 256 258 259 256 259 268 271 269 265 258 252 249 247 245 244 245 245 246 245 245 246 245 247 248 249 248 247 245 243 243 244 244 242 239 238 236 230 224 223 222 221 220 224 228
223 77 108 154 170 205 200 192 200 213 237 224 214 233 255 275 303 306 356 332 273 235 183 299 284 274 288 282 274 257 221 234 238 236 244 249 254 256 254 257 262 265 267 267 266 262 259 266 271 270 265 257 251 249 247 244 242 242 243 244 245 244 245 246 247 248 248 247 246 246 244 243 244 244 241 239 240 237 231 227 225 222 219 219 223 226
143 104 161 163 164 185 206 221 197 197 240 237 204 270 263 267 277 273 295 291 284 295 150 318 299 289 301 288 277 272 253 252 249 250 254 255 254 248 243 252 262 268 271 271 272 267 261 262 265 266 262 255 249 246 245 242 239 238 239 241 243 244 245 246 246 247 248 247 246 247 247 246 246 246 246 245 243 240 236 231 226 222 220 219 222 224
129 151 186 177 173 178 204 232 186 191 225 227 105 357 188 208 227 236 262 251 288 330 263 204 241 274 286 283 280 269 261 267 258 253 254 252 252 244 236 245 255 260 264 266 269 267 261 260 260 260 256 247 240 238 238 238 237 236 237 239 241 243 245 246 247 248 248 247 247 248 249 248 246 245 246 245 242 240 237 230 225 223 220 217 219 223
112 168 185 181 186 197 196 357 167 200 218 81 82 65 96 100 133 163 238 253 293 327 272 192 181 248 253 268 283 272 258 272 266 259 258 254 251 239 228 233 242 248 251 252 253 255 255 254 253 251 246 240 236 237 239 239 240 239 239 240 242 244 245 246 247 248 249 249 248 249 250 249 247 243 241 241 240 240 237 231 226 221 217 216 219 224
52 169 203 194 203 210 120 44 12 246 194 129 139 104 94 104 107 127 242 276 265 264 264 189 176 243 264 250 267 264 253 269 270 264 259 232 211 194 201 217 230 231 217 201 198 214 227 229 232 231 230 235 239 243 247 246 245 244 243 243 243 244 245 246 247 248 249 250 249 249 250 250 248 245 240 238 239 240 237 232 228 223 218 218 222 226
82 77 258 222 224 110 98 67 26 22 96 141 148 121 115 137 124 204 226 283 268 255 264 179 182 234 277 236 231 246 258 276 271 248 142 127 144 166 186 205 214 199 181 182 185 179 178 174 176 202 239 256 261 261 259 254 251 249 248 247 246 246 246 247 248 249 250 250 250 251 251 251 249 247 242 239 240 241 236 231 229 226 222 221 224 229
147 160 162 169 146 118 112 86 52 51 119 152 166 164 182 198 174 223 203 175 248 247 308 53 202 249 257 224 210 251 329 275 236 213 168 129 131 150 176 201 202 193 187 187 188 187 188 192 217 263 273 269 267 265 260 257 254 252 253 253 252 251 250 250 250 251 250 250 250 250 251 250 248 245 242 240 242 244 238 231 228 226 224 225 228 231
189 198 150 124 146 182 166 119 90 92 180 197 196 182 215 231 200 225 212 191 237 234 130 30 353 262 252 241 234 258 276 251 237 226 239 258 218 190 191 207 207 203 202 198 200 207 211 227 267 278 272 264 260 257 254 254 253 254 255 256 258 257 255 254 254 254 254 252 250 250 250 250 248 244 242 243 243 243 240 232 228 227 226 227 229 229
190 192 153 148 170 203 203 175 150 170 186 195 194 186 207 220 221 234 220 214 245 222 113 187 145 256 267 262 232 235 239 244 254 260 264 268 265 260 236 224 224 217 213 210 211 218 232 259 280 275 263 257 255 253 253 255 255 256 258 260 262 262 260 259 259 260 260 257 253 251 249 250 249 245 244 245 245 243 240 234 232 233 231 230 230 228
213 237 177 175 167 178 199 216 197 170 179 199 202 201 216 224 238 246 235 246 257 174 152 190 198 239 260 5 208 220 233 252 267 271 269 268 263 261 249 242 242 238 235 235 237 245 261 274 275 261 256 256 254 254 255 258 260 261 264 265 267 267 265 264 264 265 264 261 258 254 251 249 248 248 247 248 247 244 240 235 234 236 234 232 230 230
222 240 165 151 151 167 186 218 208 176 177 196 200 216 231 236 244 258 306 298 311 337 212 195 237 247 252 303 271 239 235 242 248 252 260 269 268 267 265 256 253 251 251 255 261 263 267 270 261 250 253 253 252 255 258 263 267 269 272 273 273 273 271 270 269 269 267 265 262 258 254 250 249 249 249 248 246 243 240 236 235 235 234 231 231 235
217 238 128 119 154 169 182 215 201 195 186 175 184 209 220 7 264 248 227 93 73 278 254 215 253 267 277 282 253 231 235 235 231 230 239 261 268 271 275 272 266 259 259 273 283 272 255 250 247 243 243 242 245 250 256 265 271 276 281 282 282 281 277 277 274 272 270 268 265 262 257 252 250 250 251 250 247 244 242 239 234 232 232 232 235 239
217 249 141 163 179 165 26 4 180 342 15 157 194 201 109 46 313 252 245 226 214 249 256 232 250 267 277 276 219 192 223 235 236 227 215 236 249 254 260 263 266 268 271 280 281 256 235 240 237 228 222 218 220 219 226 253 271 287 298 298 298 294 287 284 280 277 275 272 269 265 261 257 254 250 250 251 250 246 244 241 234 229 231 235 239 238
203 234 213 157 186 132 87 151 200 172 55 56 306 267 108 222 223 208 222 238 235 241 256 248 251 258 253 257 265 180 209 233 253 255 241 234 230 235 248 257 265 274 276 274 262 234 232 239 223 209 203 196 193 193 204 243 273 289 301 301 301 299 293 289 286 284 281 276 272 269 264 261 257 253 252 252 249 247 244 241 235 230 233 237 237 235
182 222 222 21 4 128 134 201 206 179 139 28 316 261 214 257 233 213 210 222 237 240 252 258 255 252 243 253 268 264 257 265 277 282 277 275 258 231 235 261 274 280 275 264 252 240 237 229 209 199 195 190 191 200 216 242 261 268 273 279 285 286 285 284 285 286 284 280 277 274 269 265 261 258 258 254 249 246 244 242 237 232 233 234 232 232
169 215 223 132 56 173 180 204 205 188 170 181 223 213 198 208 245 280 241 221 235 242 243 255 259 257 255 261 269 270 275 280 294 308 295 300 300 273 254 269 279 288 278 257 248 246 240 222 205 197 194 195 202 212 224 240 247 250 255 266 273 274 277 280 281 283 283 281 278 276 273 269 266 265 264 257 250 247 245 241 237 233 231 229 230 232
187 205 211 167 174 209 208 202 206 203 189 189 202 203 204 202 189 231 238 217 221 244 250 260 268 269 264 269 301 289 314 359 14 16 312 300 301 292 286 279 284 290 276 260 254 250 237 216 202 196 197 202 208 215 226 237 242 247 254 259 262 265 271 275 279 282 282 282 280 277 275 271 269 269 266 257 250 246 244 241 237 232 227 226 229 232
201 211 219 207 197 201 186 119 97 287 254 234 224 215 214 206 195 213 226 203 192 219 259 274 271 274 268 251 11 308 337 10 348 340 285 285 294 294 284 277 282 279 263 259 258 242 223 209 200 198 201 205 207 213 225 235 243 249 253 255 258 265 269 270 276 280 280 281 281 280 279 275 272 271 265 255 249 246 244 241 237 231 226 225 226 228
131 197 226 227 215 173 117 107 99 42 301 258 244 230 225 223 220 226 234 276 214 206 219 243 247 267 272 269 283 273 234 214 251 251 258 266 279 283 276 272 276 272 258 252 238 220 211 206 202 203 207 209 211 217 225 235 245 248 250 256 263 268 270 268 273 276 276 277 278 278 278 276 274 271 266 256 248 246 244 240 235 230 226 225 225 227
168 193 213 219 229 208 182 193 202 191 204 232 240 233 230 232 229 206 70 252 250 228 225 237 239 258 272 273 259 234 212 215 236 244 250 256 264 268 266 267 276 282 273 247 222 213 210 207 205 208 211 212 214 220 229 242 249 246 247 255 265 273 273 270 270 271 271 272 272 274 274 272 271 270 266 259 249 244 242 238 233 229 227 226 227 231
183 222 194 200 225 220 213 221 204 187 191 213 236 230 227 225 212 197 214 216 231 238 234 239 245 258 270 273 269 230 209 218 233 242 245 249 254 258 259 265 280 290 280 249 229 224 215 208 210 212 211 213 217 223 234 244 245 243 245 254 270 282 280 272 268 267 268 268 268 268 269 268 268 267 266 261 253 247 243 237 232 229 228 227 228 232
142 289 209 211 228 231 238 254 124 128 162 193 216 221 223 223 214 209 227 227 230 243 241 240 244 254 264 269 275 273 252 236 232 236 241 245 248 252 256 263 272 279 279 264 247 240 227 217 217 217 215 216 220 227 237 244 245 245 250 263 278 284 281 275 269 266 266 267 265 264 265 266 266 266 265 262 257 252 246 240 234 229 228 227 227 230
103 250 230 230 241 245 255 265 262 178 195 207 211 215 217 220 217 211 223 230 230 241 247 241 237 243 255 265 272 273 267 263 251 240 243 247 247 247 254 261 265 273 282 279 261 247 239 234 232 228 224 222 226 232 239 246 250 249 251 268 279 278 278 277 272 267 267 266 263 263 264 265 265 264 263 261 258 253 247 243 236 229 226 226 226 229
139 236 238 243 255 261 266 270 272 274 266 249 237 232 223 214 211 212 223 230 229 233 245 247 245 248 252 258 264 266 267 272 276 273 262 251 245 246 253 260 266 273 279 279 272 265 258 252 248 244 237 232 232 236 242 250 254 251 251 267 278 275 274 275 273 269 267 265 263 263 263 263 263 263 261 260 257 252 246 243 237 228 224 224 226 229
159 228 243 244 259 266 266 267 268 267 270 270 263 257 249 231 217 213 218 227 230 235 244 250 255 257 254 254 261 268 274 278 282 284 266 237 242 253 258 261 265 268 269 271 273 277 275 265 255 251 248 245 241 240 244 254 258 255 256 268 278 276 272 273 274 270 267 265 263 261 261 261 261 262 261 259 257 253 246 242 237 228 223 225 227 229
166 209 235 223 245 261 261 264 265 260 259 263 266 265 261 254 240 225 222 226 231 240 245 247 254 260 258 258 263 272 277 279 279 275 260 241 246 257 260 263 266 266 266 269 270 272 275 271 265 262 261 261 258 250 248 257 263 259 261 273 281 278 273 273 274 271 268 266 263 260 260 260 260 261 261 258 255 251 246 242 237 230 225 225 227 231
173 200 197 187 226 250 250 252 259 260 259 256 260 259 251 247 244 236 229 225 226 235 241 243 248 255 259 263 266 269 273 275 276 276 273 265 261 260 258 263 269 269 268 270 270 269 269 269 270 272 271 271 270 260 253 259 265 264 270 281 284 280 275 274 273 271 268 266 263 260 259 259 260 262 261 258 254 249 245 243 238 230 226 226 229 233
180 189 182 192 221 247 247 247 256 263 259 239 237 242 239 238 240 240 237 232 225 226 233 239 241 247 259 268 267 262 264 269 274 275 274 274 274 271 263 264 271 271 269 271 271 270 269 267 269 272 271 272 271 264 259 265 272 274 278 283 283 281 278 276 275 272 268 265 262 259 258 258 258 259 260 258 255 250 245 242 236 230 227 228 231 235
186 199 209 206 215 245 248 246 248 251 248 235 229 232 233 235 235 235 237 235 229 223 227 239 248 254 257 260 260 259 263 269 271 272 273 274 276 277 272 272 274 272 271 272 271 270 269 268 269 270 269 269 269 267 268 275 279 279 278 279 280 279 278 278 278 276 270 265 262 260 258 257 256 256 257 258 255 249 244 240 235 230 228 229 232 235
190 205 221 223 227 247 253 246 243 240 228 228 238 235 231 232 233 233 237 239 237 234 232 236 245 251 252 253 256 260 267 271 271 273 274 273 273 278 277 274 272 269 268 269 269 270 270 270 270 269 266 265 267 269 273 277 279 277 275 274 275 276 277 279 279 277 271 264 262 261 259 258 256 256 256 256 253 248 243 240 235 229 227 228 232 235
212 208 221 230 231 238 241 234 240 255 259 245 254 249 231 229 231 234 241 244 243 242 240 237 239 242 246 251 256 261 268 274 275 274 273 271 271 272 271 269 269 269 269 270 270 270 271 272 271 268 264 262 264 267 271 274 275 272 270 271 273 275 277 278 277 275 270 264 260 259 258 257 255 254 254 253 251 246 242 239 234 228 224 226 230 234
227 221 222 230 222 224 242 242 250 283 287 266 258 246 227 218 218 224 237 246 242 237 236 238 241 244 246 250 256 262 268 272 277 274 272 272 270 268 267 267 270 271 272 272 273 272 271 270 268 266 263 262 264 268 271 271 269 267 268 272 275 276 276 275 273 271 267 262 258 256 255 254 252 250 250 250 247 244 241 239 233 226 223 225 228 231
221 221 222 228 219 214 236 246 250 258 254 245 246 244 240 235 227 218 234 248 245 240 237 236 242 249 249 249 255 261 264 264 265 270 272 273 273 271 269 270 273 275 276 276 276 276 273 270 267 265 264 264 266 268 267 263 263 266 270 273 274 272 270 269 269 268 265 261 258 255 253 252 249 248 248 246 244 243 240 237 232 226 222 223 226 230
215 219 219 228 231 220 227 238 240 242 244 245 250 254 255 251 240 232 248 250 238 245 245 239 243 252 256 263 261 250 246 254 245 261 271 276 278 277 277 277 278 280 281 281 281 279 276 274 271 268 266 265 264 262 259 259 263 267 269 268 266 264 264 265 266 267 265 261 257 254 252 250 247 244 243 241 240 238 235 231 228 223 221 222 226 231
213 215 216 224 232 229 234 241 238 245 263 263 264 274 279 253 228 230 248 247 231 254 256 252 255 262 263 265 264 245 213 240 252 264 274 279 281 281 281 282 283 284 285 284 282 281 279 277 274 271 267 264 262 260 260 262 264 264 261 259 258 259 262 264 265 264 261 257 253 251 248 245 242 238 236 233 230 227 224 221 217 214 216 220 226 232
220 218 217 222 228 230 237 245 246 255 258 251 268 283 303 129 208 225 244 314 341 309 306 308 299 295 276 255 253 246 236 248 258 266 274 280 282 281 281 280 281 283 284 284 284 283 282 278 274 272 269 266 263 261 260 259 257 255 254 255 258 259 260 261 259 257 254 251 248 245 242 238 235 231 228 223 219 215 212 207 203 204 209 216 223 228
238 228 218 220 227 230 233 239 249 258 236 226 299 308 98 160 232 245 315 334 331 325 323 322 323 331 314 280 272 272 264 262 264 266 271 276 278 278 278 278 281 284 283 281 281 282 281 275 271 270 268 264 260 255 254 253 253 254 256 256 257 257 256 255 252 249 246 243 240 236 233 230 226 221 216 211 206 202 196 191 190 195 203 209 214 218
233 250 241 219 222 233 233 235 245 252 66 44 355 337 139 186 296 334 340 328 324 321 317 313 312 318 320 308 301 299 295 289 281 274 274 276 278 278 278 278 281 283 281 279 279 279 277 271 266 265 262 256 251 249 250 253 254 254 254 253 252 252 250 247 244 241 236 232 230 226 222 219 214 207 203 197 192 187 182 180 184 189 195 198 199 202
218 234 253 237 208 226 235 234 215 193 351 13 3 262 257 290 309 320 323 316 314 314 311 308 307 308 308 306 304 303 302 299 294 290 288 285 283 282 282 282 283 283 282 282 280 275 270 265 262 260 256 251 250 251 251 251 250 248 247 247 246 244 241 238 234 230 225 221 218 213 209 204 199 194 188 182 179 177 174 175 180 185 187 187 189 193
217 230 261 262 237 237 253 264 289 298 293 296 283 257 271 289 298 305 309 305 304 307 308 305 305 307 308 307 304 301 298 295 294 294 294 293 291 289 287 286 287 288 287 283 276 268 262 260 258 254 252 251 251 251 249 246 244 242 240 240 238 235 232 228 223 218 214 210 205 200 196 190 184 180 175 171 171 171 170 173 179 183 185 184 187 191
259 299 306 273 280 291 267 256 261 278 288 291 290 282 283 292 298 302 301 297 299 305 308 306 306 307 308 306 304 301 299 297 296 293 292 292 293 293 291 289 289 289 285 276 267 261 258 257 254 251 251 251 248 245 242 240 237 232 228 227 225 220 217 214 211 207 202 199 194 188 184 180 174 170 167 166 166 168 172 177 180 183 184 184 185 187
279 5 353 280 286 284 264 248 263 287 293 299 302 301 298 300 305 306 301 299 302 304 306 308 309 309 307 305 302 301 300 299 296 292 290 288 287 289 290 289 287 285 278 265 257 256 256 255 252 250 248 244 239 236 233 230 224 214 207 209 208 204 201 200 200 198 193 189 185 180 177 175 171 167 166 166 167 170 173 177 180 183 185 184 182 181
314 9 342 287 279 271 282 314 316 302 296 298 299 299 300 304 311 312 307 304 305 306 308 310 311 309 307 304 303 302 300 295 291 289 289 288 285 285 285 285 283 279 270 259 253 252 253 252 249 246 242 235 230 227 221 215 206 195 190 194 195 192 190 189 189 189 186 182 179 176 173 172 171 169 167 167 169 171 171 173 176 181 182 181 177 173
286 309 298 274 279 275 277 296 300 294 290 293 295 297 302 305 307 307 306 305 305 306 307 309 309 308 305 303 303 302 299 299 301 300 301 302 297 292 287 284 281 275 267 260 255 253 251 248 243 237 232 227 223 217 208 199 191 183 181 185 187 184 183 183 181 181 180 178 176 173 171 170 171 171 169 169 169 169 168 167 170 173 173 172 170 166
268 268 257 262 273 276 272 280 289 289 288 292 294 295 297 301 303 301 301 302 303 303 304 304 303 304 303 303 302 297 293 300 308 307 307 312 314 310 301 291 283 276 269 264 260 254 248 242 235 229 225 221 216 207 196 187 183 179 176 180 182 179 180 181 180 178 178 176 175 173 171 171 171 171 172 171 169 168 166 163 163 165 167 168 168 166
245 244 250 256 259 267 276 280 282 283 283 284 287 289 292 296 297 295 296 298 299 299 300 299 299 300 301 301 300 294 288 291 297 297 298 302 307 310 309 302 293 284 278 272 265 256 247 238 230 224 218 213 205 194 185 182 182 180 177 180 182 182 184 188 189 185 182 179 177 175 173 172 172 172 173 171 170 169 167 164 164 166 170 174 174 173